LAN043 SCEL-SCVD

Flight info

Callsign LAN043
Flight time N/A
Altitude 37000
Route GELUS5B GELUS UQ809 ILNUT ILNUT1A
Aircraft A320/M-SDE3FGHIRWY/LB1

Departure

Time N/A
Airport Comodoro Arturo Merino Benítez International Airport (SCEL)

Arrival

Time 2026-04-29 21:42
Airport Pichoy Airport (SCVD)
Time Latitude Longitude Altitude Speed Heading
2026-04-29 20:37 -33.70255 -71.07340 13085 ft 359 kts 209°
2026-04-29 20:37 -33.72490 -71.08701 13727 ft 361 kts 209°
2026-04-29 20:38 -33.74739 -71.10072 14331 ft 363 kts 209°
2026-04-29 20:38 -33.76985 -71.11442 14929 ft 362 kts 209°
2026-04-29 20:38 -33.79234 -71.12813 15568 ft 362 kts 209°
2026-04-29 20:38 -33.81476 -71.14178 16227 ft 361 kts 209°
2026-04-29 20:39 -33.83718 -71.15544 16867 ft 361 kts 209°
2026-04-29 20:39 -33.85956 -71.16910 17516 ft 360 kts 209°
2026-04-29 20:39 -33.88188 -71.18274 18181 ft 360 kts 209°
2026-04-29 20:39 -33.90416 -71.19638 18747 ft 360 kts 210°
2026-04-29 20:40 -33.92651 -71.21008 19295 ft 361 kts 210°
2026-04-29 20:40 -33.94167 -71.21938 19664 ft 362 kts 210°
2026-04-29 20:40 -33.96416 -71.23317 20229 ft 364 kts 210°
2026-04-29 20:40 -33.99405 -71.25153 20949 ft 365 kts 211°
2026-04-29 20:41 -34.00941 -71.26093 21313 ft 366 kts 211°
2026-04-29 20:41 -34.03213 -71.27481 21841 ft 367 kts 211°
2026-04-29 20:41 -34.05500 -71.28875 22314 ft 369 kts 211°
2026-04-29 20:41 -34.07791 -71.30279 22805 ft 370 kts 211°
2026-04-29 20:42 -34.10093 -71.31695 23308 ft 372 kts 212°
2026-04-29 20:42 -34.12406 -71.33118 23749 ft 374 kts 212°
2026-04-29 20:42 -34.14726 -71.34546 24117 ft 375 kts 212°
2026-04-29 20:42 -34.17058 -71.35985 24482 ft 378 kts 212°
2026-04-29 20:43 -34.19404 -71.37431 24836 ft 380 kts 212°
2026-04-29 20:43 -34.21766 -71.38885 25187 ft 382 kts 212°
2026-04-29 20:43 -34.24136 -71.40343 25544 ft 384 kts 212°
2026-04-29 20:43 -34.26525 -71.41813 25897 ft 386 kts 212°
2026-04-29 20:44 -34.28922 -71.43294 26237 ft 388 kts 212°
2026-04-29 20:44 -34.31332 -71.44786 26570 ft 390 kts 212°
2026-04-29 20:44 -34.33751 -71.46284 26898 ft 392 kts 212°
2026-04-29 20:44 -34.36182 -71.47791 27219 ft 394 kts 212°
2026-04-29 20:45 -34.38629 -71.49306 27532 ft 396 kts 212°
2026-04-29 20:45 -34.41086 -71.50827 27870 ft 398 kts 212°
2026-04-29 20:45 -34.43560 -71.52358 28186 ft 400 kts 212°
2026-04-29 20:45 -34.46041 -71.53896 28506 ft 402 kts 212°
2026-04-29 20:46 -34.48565 -71.55462 28822 ft 404 kts 212°
2026-04-29 20:46 -34.51073 -71.57018 29142 ft 406 kts 212°
2026-04-29 20:46 -34.53592 -71.58582 29482 ft 407 kts 212°
2026-04-29 20:46 -34.56106 -71.60139 29955 ft 405 kts 212°
2026-04-29 20:47 -34.58613 -71.61694 30360 ft 404 kts 213°
2026-04-29 20:47 -34.61112 -71.63246 30758 ft 403 kts 212°
2026-04-29 20:47 -34.63602 -71.64795 31148 ft 402 kts 213°
2026-04-29 20:47 -34.66084 -71.66340 31511 ft 401 kts 213°
2026-04-29 20:48 -34.68561 -71.67886 31887 ft 400 kts 213°
2026-04-29 20:48 -34.71030 -71.69431 32268 ft 398 kts 213°
2026-04-29 20:48 -34.73489 -71.70968 32650 ft 397 kts 213°
2026-04-29 20:48 -34.75947 -71.72504 33028 ft 396 kts 213°
2026-04-29 20:49 -34.78397 -71.74035 33412 ft 395 kts 213°
2026-04-29 20:49 -34.80839 -71.75566 33785 ft 394 kts 213°
2026-04-29 20:49 -34.83277 -71.77094 34116 ft 393 kts 213°
2026-04-29 20:49 -34.85705 -71.78614 34406 ft 393 kts 213°
2026-04-29 20:50 -34.88130 -71.80135 34695 ft 392 kts 214°
2026-04-29 20:50 -34.90548 -71.81656 34924 ft 392 kts 214°
2026-04-29 20:50 -34.95410 -71.84717 35000 ft 395 kts 214°
2026-04-29 20:51 -35.00299 -71.87785 35001 ft 395 kts 214°
2026-04-29 20:51 -35.05190 -71.90852 35007 ft 395 kts 214°
2026-04-29 20:52 -35.10071 -71.93931 35004 ft 395 kts 214°
2026-04-29 20:52 -35.14946 -71.97015 35006 ft 394 kts 214°
2026-04-29 20:53 -35.19853 -72.00122 35010 ft 395 kts 214°
2026-04-29 20:53 -35.24736 -72.03207 35014 ft 395 kts 214°
2026-04-29 20:54 -35.32058 -72.07842 35025 ft 395 kts 214°
2026-04-29 20:55 -35.36936 -72.10946 35033 ft 395 kts 214°
2026-04-29 20:55 -35.41810 -72.14055 35033 ft 395 kts 214°
2026-04-29 20:56 -35.46681 -72.17163 35034 ft 395 kts 214°
2026-04-29 20:56 -35.51553 -72.20274 35037 ft 395 kts 214°
2026-04-29 20:57 -35.56428 -72.23387 35042 ft 395 kts 214°
2026-04-29 20:57 -35.61305 -72.26503 35042 ft 395 kts 214°
2026-04-29 20:58 -35.66180 -72.29628 35046 ft 395 kts 214°
2026-04-29 20:58 -35.71047 -72.32755 35045 ft 394 kts 214°
2026-04-29 20:59 -35.75908 -72.35886 35044 ft 394 kts 214°
2026-04-29 20:59 -35.80800 -72.39035 35045 ft 394 kts 214°
2026-04-29 21:00 -35.85658 -72.42169 35050 ft 394 kts 215°
2026-04-29 21:00 -35.90760 -72.44793 35054 ft 405 kts 203°
2026-04-29 21:01 -35.96199 -72.46619 35053 ft 405 kts 204°
2026-04-29 21:01 -36.01625 -72.48462 35053 ft 404 kts 204°
2026-04-29 21:02 -36.07051 -72.50313 35051 ft 405 kts 204°
2026-04-29 21:02 -36.12480 -72.52163 35053 ft 405 kts 204°
2026-04-29 21:03 -36.17910 -72.54012 35060 ft 405 kts 204°
2026-04-29 21:03 -36.23346 -72.55855 35064 ft 405 kts 204°
2026-04-29 21:04 -36.28778 -72.57711 35067 ft 404 kts 204°
2026-04-29 21:04 -36.34198 -72.59569 35061 ft 404 kts 204°
2026-04-29 21:05 -36.39612 -72.61427 35068 ft 404 kts 204°
2026-04-29 21:05 -36.45021 -72.63281 35074 ft 403 kts 204°
2026-04-29 21:06 -36.50468 -72.65152 35069 ft 403 kts 204°
2026-04-29 21:06 -36.55743 -72.66970 35068 ft 403 kts 204°
2026-04-29 21:07 -36.61239 -72.68867 35078 ft 403 kts 204°
2026-04-29 21:07 -36.65753 -72.70424 35056 ft 410 kts 204°
2026-04-29 21:08 -36.72232 -72.72678 35045 ft 416 kts 204°
2026-04-29 21:08 -36.77811 -72.74604 35043 ft 416 kts 204°
2026-04-29 21:09 -36.83398 -72.76527 35046 ft 416 kts 204°
2026-04-29 21:09 -36.88977 -72.78464 35046 ft 416 kts 204°
2026-04-29 21:10 -36.94596 -72.80421 35057 ft 416 kts 205°
2026-04-29 21:10 -37.00177 -72.82368 35065 ft 417 kts 205°
2026-04-29 21:11 -37.05761 -72.84306 35075 ft 417 kts 205°
2026-04-29 21:11 -37.10407 -72.85929 35076 ft 417 kts 205°
2026-04-29 21:12 -37.15989 -72.87889 35087 ft 416 kts 205°
2026-04-29 21:12 -37.21566 -72.89848 35087 ft 416 kts 205°
2026-04-29 21:13 -37.27148 -72.91805 35081 ft 416 kts 205°
2026-04-29 21:13 -37.32730 -72.93763 35093 ft 416 kts 205°
2026-04-29 21:14 -37.37947 -72.95588 35088 ft 416 kts 205°
2026-04-29 21:14 -37.43517 -72.97550 35093 ft 416 kts 205°
2026-04-29 21:15 -37.49087 -72.99523 35097 ft 416 kts 205°
2026-04-29 21:15 -37.54661 -73.01499 35102 ft 416 kts 205°
2026-04-29 21:16 -37.60224 -73.03464 35106 ft 415 kts 205°
2026-04-29 21:16 -37.65780 -73.05432 35108 ft 415 kts 205°
2026-04-29 21:17 -37.71334 -73.07407 35112 ft 414 kts 205°
2026-04-29 21:17 -37.76957 -73.09147 34810 ft 425 kts 196°
2026-04-29 21:17 -37.79950 -73.09298 34574 ft 434 kts 190°
2026-04-29 21:18 -37.82981 -73.09269 33789 ft 440 kts 190°
2026-04-29 21:18 -37.86059 -73.09244 33013 ft 442 kts 189°
2026-04-29 21:18 -37.89109 -73.09209 32523 ft 437 kts 189°
2026-04-29 21:18 -37.92138 -73.09176 31953 ft 434 kts 190°
2026-04-29 21:19 -37.95146 -73.09147 31391 ft 430 kts 190°
2026-04-29 21:19 -37.98126 -73.09120 30828 ft 426 kts 190°
2026-04-29 21:19 -38.01081 -73.09096 30281 ft 423 kts 190°
2026-04-29 21:19 -38.04010 -73.09077 29672 ft 420 kts 190°
2026-04-29 21:20 -38.06922 -73.09056 29131 ft 416 kts 190°
2026-04-29 21:20 -38.09807 -73.09033 28600 ft 413 kts 189°
2026-04-29 21:20 -38.12668 -73.09010 28063 ft 409 kts 189°
2026-04-29 21:20 -38.15508 -73.08990 27534 ft 406 kts 190°
2026-04-29 21:21 -38.18362 -73.08974 27016 ft 403 kts 190°
2026-04-29 21:21 -38.21150 -73.08957 26514 ft 399 kts 189°
2026-04-29 21:21 -38.23920 -73.08935 26030 ft 397 kts 189°
2026-04-29 21:21 -38.26666 -73.08910 25554 ft 393 kts 189°
2026-04-29 21:22 -38.29394 -73.08885 25088 ft 390 kts 189°
2026-04-29 21:22 -38.32101 -73.08864 24629 ft 388 kts 189°
2026-04-29 21:22 -38.34800 -73.08845 24170 ft 387 kts 189°
2026-04-29 21:22 -38.37482 -73.08824 23713 ft 385 kts 189°
2026-04-29 21:23 -38.40155 -73.08804 23197 ft 384 kts 189°
2026-04-29 21:23 -38.42816 -73.08782 22743 ft 381 kts 189°
2026-04-29 21:23 -38.45457 -73.08759 22281 ft 379 kts 189°
2026-04-29 21:23 -38.48087 -73.08736 21810 ft 377 kts 188°
2026-04-29 21:24 -38.50704 -73.08716 21341 ft 375 kts 188°
2026-04-29 21:24 -38.53305 -73.08697 20854 ft 373 kts 188°
2026-04-29 21:24 -38.55899 -73.08677 20379 ft 372 kts 188°
2026-04-29 21:24 -38.58483 -73.08656 19880 ft 371 kts 188°
2026-04-29 21:25 -38.61066 -73.08637 19393 ft 371 kts 188°
2026-04-29 21:25 -38.63648 -73.08617 18892 ft 371 kts 188°
2026-04-29 21:25 -38.66228 -73.08598 18436 ft 370 kts 187°
2026-04-29 21:25 -38.68795 -73.08575 17879 ft 369 kts 187°
2026-04-29 21:26 -38.71339 -73.08553 17395 ft 365 kts 187°
2026-04-29 21:26 -38.73876 -73.08535 16866 ft 363 kts 187°
2026-04-29 21:26 -38.76387 -73.08515 16380 ft 359 kts 187°
2026-04-29 21:26 -38.78881 -73.08497 15896 ft 357 kts 186°
2026-04-29 21:27 -38.81147 -73.08481 15459 ft 354 kts 186°
2026-04-29 21:28 -38.83039 -73.08467 15094 ft 356 kts 186°
2026-04-29 21:28 -38.85009 -73.08460 14726 ft 372 kts 186°
2026-04-29 21:28 -38.85635 -73.08457 14621 ft 373 kts 186°
2026-04-29 21:29 -38.88210 -73.08442 14314 ft 365 kts 185°
2026-04-29 21:29 -38.90711 -73.08414 14052 ft 355 kts 185°
2026-04-29 21:29 -38.93165 -73.08386 13557 ft 350 kts 185°
2026-04-29 21:29 -38.95579 -73.08363 12697 ft 345 kts 185°
2026-04-29 21:30 -38.97945 -73.08342 12133 ft 333 kts 185°
2026-04-29 21:30 -39.00238 -73.08318 11711 ft 319 kts 185°
2026-04-29 21:30 -39.02459 -73.08299 11286 ft 319 kts 185°
2026-04-29 21:30 -39.04677 -73.08288 10864 ft 319 kts 184°
2026-04-29 21:31 -39.06233 -73.08280 10565 ft 319 kts 184°
2026-04-29 21:32 -39.07905 -73.08271 10345 ft 315 kts 184°
2026-04-29 21:33 -39.10063 -73.08255 10221 ft 305 kts 184°
2026-04-29 21:33 -39.12173 -73.08236 10071 ft 295 kts 184°
2026-04-29 21:33 -39.14217 -73.08217 9732 ft 294 kts 184°
2026-04-29 21:33 -39.15533 -73.08206 9531 ft 292 kts 184°
2026-04-29 21:34 -39.16573 -73.08199 9337 ft 292 kts 184°
2026-04-29 21:34 -39.18598 -73.08188 8963 ft 291 kts 184°
2026-04-29 21:34 -39.20614 -73.08174 8651 ft 288 kts 184°
2026-04-29 21:35 -39.22626 -73.08160 8285 ft 288 kts 184°
2026-04-29 21:35 -39.24614 -73.08144 8000 ft 285 kts 184°
2026-04-29 21:35 -39.26601 -73.08172 7492 ft 289 kts 187°
2026-04-29 21:35 -39.28618 -73.08322 6977 ft 287 kts 188°
2026-04-29 21:36 -39.30577 -73.08515 6588 ft 277 kts 188°
2026-04-29 21:36 -39.32471 -73.08713 6210 ft 269 kts 188°
2026-04-29 21:36 -39.32908 -73.08759 6120 ft 266 kts 188°
2026-04-29 21:36 -39.33381 -73.08809 6034 ft 265 kts 188°
2026-04-29 21:37 -39.35222 -73.09005 5678 ft 266 kts 187°
2026-04-29 21:37 -39.37073 -73.09192 5315 ft 267 kts 186°
2026-04-29 21:37 -39.38934 -73.09371 4959 ft 269 kts 185°
2026-04-29 21:37 -39.40804 -73.09509 4585 ft 269 kts 181°
2026-04-29 21:38 -39.42672 -73.09469 4224 ft 268 kts 180°
2026-04-29 21:38 -39.44509 -73.09400 4119 ft 257 kts 179°
2026-04-29 21:38 -39.46267 -73.09322 3944 ft 250 kts 179°
2026-04-29 21:38 -39.47976 -73.09223 3673 ft 240 kts 179°
2026-04-29 21:39 -39.49609 -73.09140 3141 ft 231 kts 179°
2026-04-29 21:39 -39.51199 -73.09078 2558 ft 226 kts 179°
2026-04-29 21:39 -39.52471 -73.09042 2280 ft 212 kts 180°
2026-04-29 21:39 -39.53888 -73.09008 2237 ft 189 kts 180°
2026-04-29 21:40 -39.55164 -73.08971 2069 ft 174 kts 180°
2026-04-29 21:40 -39.56358 -73.08943 1676 ft 171 kts 180°
2026-04-29 21:40 -39.57545 -73.08907 1275 ft 170 kts 180°
2026-04-29 21:40 -39.58697 -73.08881 1119 ft 161 kts 179°
2026-04-29 21:41 -39.59786 -73.08819 963 ft 154 kts 178°
2026-04-29 21:41 -39.60845 -73.08755 752 ft 151 kts 179°
2026-04-29 21:41 -39.61889 -73.08754 621 ft 150 kts 180°
2026-04-29 21:41 -39.62932 -73.08707 385 ft 149 kts 178°
2026-04-29 21:42 -39.63965 -73.08664 134 ft 148 kts 180°
2026-04-29 21:42 -39.64931 -73.08630 77 ft 113 kts 178°
2026-04-29 21:42 -39.65318 -73.08615 81 ft 55 kts 178°
2026-04-29 21:42 -39.65547 -73.08605 79 ft 29 kts 179°
2026-04-29 21:43 -39.65751 -73.08597 80 ft 20 kts 178°
2026-04-29 21:43 -39.65854 -73.08552 79 ft 16 kts 133°
2026-04-29 21:43 -39.65913 -73.08543 79 ft 9 kts 249°
2026-04-29 21:43 -39.65869 -73.08589 81 ft 10 kts 357°
2026-04-29 21:44 -39.65793 -73.08593 81 ft 13 kts 359°
2026-04-29 21:44 -39.65696 -73.08597 81 ft 16 kts 357°
2026-04-29 21:44 -39.65566 -73.08604 81 ft 21 kts
2026-04-29 21:44 -39.65398 -73.08606 79 ft 27 kts 358°
2026-04-29 21:45 -39.65242 -73.08549 81 ft 22 kts 29°
2026-04-29 21:45 -39.65153 -73.08489 83 ft 5 kts 27°
2026-04-29 21:45 -39.65102 -73.08450 81 ft 9 kts 56°
2026-04-29 21:45 -39.65098 -73.08377 79 ft 7 kts 83°
2026-04-29 21:46 -39.65096 -73.08334 83 ft 3 kts 90°
2026-04-29 21:46 -39.65095 -73.08297 83 ft 4 kts 83°
2026-04-29 21:46 -39.65077 -73.08267 80 ft 5 kts 47°
2026-04-29 21:46 -39.65055 -73.08235 78 ft 5 kts 48°
2026-04-29 21:47 -39.65027 -73.08232 76 ft 3 kts 345°
2026-04-29 21:47 -39.65024 -73.08232 77 ft 0 kts 348°
2026-04-29 21:47 -39.65023 -73.08232 77 ft 0 kts 354°
2026-04-29 21:47 -39.65020 -73.08232 78 ft 0 kts 357°